Find OPS 8068

NORAD ID: 1580 Int'l Des: 1965-072 Owner: AFSSD Country: US operational
LEORETROGRADESSO

Current View

Loading 3D Globe...

About OPS 8068

Description loading...

Upcoming Passes

Passes for default location (London). Set your location on the main map for personalized predictions.

Altitude History

Loading altitude history...

Two-Line Element Set

1 1580U 65072A 26150.39648480 .00000474 00000-0 15233-3 0 9992
2 1580 98.4177 307.4451 0230128 98.1793 264.5560 14.29652082130471
Epoch: May 30, 2026 • Age: 19 hours

Current Status

Altitude 728.2 km
Velocity 7.53 km/s
Sub-Earth Point 28.81°N, 7.02°W
Type other

Most Searched